Location: Delettes
(50.6178°N, 2.2123°E)
Time: 18:18:35
(UTC+00:00)

STARLINK-1030 - Pass Details

Date: 27 February 2020
Orbit: 549 x 551 km, 53.0° (Epoch: 29 March)

Event Time Altitude Azimuth Distance (km) Brightness Sun altitude
Rises 19:34:56 0° 269° (W) 2,717 8.6 -20.8°
Reaches altitude 10° 19:37:11 10° 272° (W) 1,824 7.4 -21.1°
Maximum altitude 19:41:18 63° 354° (N) 618 3.8 -21.8°
Enters shadow 19:41:49 57° 33° (NNE) 655 3.8 -21.8°
